Regional Weather Roundup
Issued by NWS

Home | Current Version | Previous Version | Text Only | Print | Product List | Glossary On
Versions: 1 2 3 4 5 6 7 8 9 10 11 12 13 14 15 16 17 18 19 20 21 22 23 24 25 26 27 28 29 30 31 32 33 34 35 36 37 38 39 40 41 42 43 44 45 46 47 48 49 50
000
ASUS45 KBOU 280807
RWRCO

WEATHER ROUNDUP FOR COLORADO
NATIONAL WEATHER SERVICE DENVER/BOULDER CO
200 AM MDT FRI AUG 28 2015

NOTE: "FAIR" INDICATES FEW OR NO CLOUDS BELOW 12000 FEET WITH NO
SIGNIFICANT WEATHER AND/OR OBSTRUCTIONS TO VISIBILITY.

COZ001>005-013-030-031-280900-
...NORTHWEST COLORADO...

CITY           SKY/WX    TMP DP  RH WIND       PRES   REMARKS
CRAIG          CLEAR     50  47  89 CALM      30.35R
HAYDEN         NOT AVBL
MEEKER         CLEAR     54  50  86 SE6       30.36R
MOUNT WERNER   NOT AVBL
STEAMBOAT SPGS PTCLDY    47  46  96 CALM      30.38R
WALDEN         CLOUDY    46  45  93 E3        30.42S
$$

COZ006>008-011-280900-
...WEST CENTRAL VALLEYS...

CITY           SKY/WX    TMP DP  RH WIND       PRES   REMARKS
GRAND JUNCTION CLEAR     64  54  69 S9        30.24S
MONTROSE       MOCLDY    60  53  77 SE6       30.34S
EAGLE          PTCLDY    55  54  94 E6        30.39R
RIFLE          CLEAR     57  53  86 E3        30.32S
DELTA          RAIN      61  55  81 CALM      30.30S
NUCLA          MOCLDY    64  52  63 SE6       30.33S
$$

COZ017>023-064>068-280900-
...SOUTHWEST COLORADO...

CITY           SKY/WX    TMP DP  RH WIND       PRES   REMARKS
DURANGO        PTCLDY    55  50  83 NW5       30.30S
CORTEZ         CLEAR     56  52  86 NE6       30.26S
PAGOSA SPRINGS PTCLDY    53  52  96 CALM      30.38S
TELLURIDE      CLOUDY    54  46  73 W6        30.55R
WOLF CREEK PAS CLEAR     41  37  87 NE18      30.66F
$$

COZ009-010-012-014-032>034-037-058>063-280900-
...CENTRAL COLORADO...

CITY           SKY/WX    TMP DP  RH WIND       PRES   REMARKS
ASPEN          MOCLDY    49  46  90 SW7       30.43S
BUENA VISTA    MOCLDY    53  43  67 S6        30.40R
COPPER MTN     MOCLDY    45  36  70 W17       30.66S
BERTHOUD PASS  FAIR      36  25  64 NW26G35   30.66R
COTTONWOOD PAS MOCLDY    54  37  54 NW5       30.50F
GUNNISON       MOCLDY    55  45  67 SE6       30.45S
KREMMLING      PTCLDY    48  45  87 CALM      30.42R
LEADVILLE      CLOUDY    44  42  93 NE6       30.51F
MONARCH PASS   PTCLDY    43  36  75 NW10      30.75F
SALIDA         MOCLDY    53  45  74 SW7       30.44F
SUNLIGHT       PTCLDY    48  41  76 N5        30.63F
WILKERSON PASS MOCLDY    45  37  76 W9G16     30.61S
$$

COZ069>075-280900-
...SAN LUIS VALLEY/SANGRE DE CRISTO MOUNTAINS...

CITY           SKY/WX    TMP DP  RH WIND       PRES   REMARKS
ALAMOSA        PTCLDY    52  48  86 MISG      30.35S
LA VETA PASS   PTCLDY    50  43  76 CALM      30.52S
SAGUACHE       PTCLDY    55  46  71 NW9       30.40R
$$

COZ035-036-038>040-280900-
...NORTHERN COLORADO FRONT RANGE...

CITY           SKY/WX    TMP DP  RH WIND       PRES   REMARKS
DENVER INTL AP CLOUDY    65  55  70 W8        30.18S
DMNS CITY PARK   N/A     63  55  74 NW3       30.18S
AURORA         PTCLDY    61  54  79 S7        30.20S
FRONT RANGE AP MOCLDY    63  54  72 W3        30.20R
ERIE MUNI ARPT MOCLDY    62  59  88 CALM      30.18R
BOULDER MUN AP MOCLDY    68  52  56 W5        30.18S
CENTENNIAL     PTCLDY    59  54  83 CALM      30.21S
BROOMFIELD     MOCLDY    64  52  63 NW12      30.22R
FORT COLLINS   PTCLDY    63  52  67 N10       30.21R
LONGMONT       PTCLDY    66  54  65 CALM      30.20R
$$

COZ041-046-047-076>085-087-088-280900-
...PIKES PEAK/PALMER DIVIDE AND SOUTHERN FOOTHILLS...

CITY           SKY/WX    TMP DP  RH WIND       PRES   REMARKS
COLO. SPRINGS  MOCLDY    57  50  77 N7        30.24F
A. F. ACADEMY  PTCLDY    53  52  95 N8        30.25F
ELLICOTT       PTCLDY   N/A N/A N/A N5        30.21F
FALCON         PTCLDY    56  49  78 MISG      30.28F
FORT CARSON    CLEAR     58  53  83 N6        30.20F
LIMON          CLEAR     57  55  93 NW3       30.17S
MONUMENT HILL  PTCLDY    52  46  82 W8        30.29S
TRINIDAD       PTCLDY    62  56  80 W14       30.21S
$$

COZ042>045-048>051-090-091-280900-
...NORTHEAST COLORADO...

CITY           SKY/WX    TMP DP  RH WIND       PRES   REMARKS
GREELEY ARPT   PTCLDY    64  54  68 N16G23    30.17S
AKRON          PTCLDY    59  57  93 W8        30.12R
BURLINGTON     CLEAR     63  57  81 NW9       30.09S
WRAY           CLEAR     60  60 100 W5        30.05S
STERLING       PTCLDY    55  54  94 SW3       30.07S
HOLYOKE        CLEAR     61  55  82 NW5       30.05S
FORT MORGAN    CLEAR     62  56  82 NW9       30.13R
$$

COZ086-089-092>099-280900-
...SOUTHEAST COLORADO...

CITY           SKY/WX    TMP DP  RH WIND       PRES   REMARKS
PUEBLO         CLEAR     63  59  87 W8        30.14F
LA JUNTA       PTCLDY    66  59  78 W12       30.11S
LAMAR          MOCLDY    68  60  75 NW8       30.05R
SPRINGFIELD      N/A     66  60  81 W8        30.09S
$$



USA.gov is the U.S. government's official web portal to all federal, state and local government web resources and services.